Weather History for Lakeville, MN

Change the Weather History Date:

Wednesday, August 1, 2012

  Actual Average Record
Temperature  
Mean Temperature 74 °F -  
Max Temperature 89 °F 83 °F 101 °F (1988)
Min Temperature 60 °F 59 °F 47 °F (1973)
Cooling Degree Days 10    
Growing Degree Days 24 (Base 50)    
Moisture  
Dew Point 67 °F    
Average Humidity 77    
Maximum Humidity 100    
Minimum Humidity 55    
Precipitation  
Precipitation 0.03 in - - ()
Sea Level Pressure  
Sea Level Pressure 29.88 in    
Wind  
Wind Speed 4 mph (SW)    
Max Wind Speed 12 mph    
Max Gust Speed 18 mph    
Visibility 10 miles    
Events Rain , Thunderstorm    
Averages and records for this station are not official NWS values.
T = Trace of Precipitation, MM = Missing Value Source: NWS Daily Summary

Daily Weather History Graph

Daily Weather History Graph

Search for Another Location

Airport:

Trip Planner

Search our weather history database for the weather conditions in past years. The results will help you decide how hot, cold, wet, or windy it might be!

Date:

Astronomy

Aug. 01, 2012 Rise Set
Actual Time 5:59 AM CDT 8:37 PM CDT
Civil Twilight 5:26 AM CDT 9:11 PM CDT
Nautical Twilight 4:44 AM CDT 9:52 PM CDT
Astronomical Twilight 3:56 AM CDT 10:40 PM CDT
Moon 8:05 PM CDT (8/1) 5:31 AM CDT (8/1)
Length of Visible Light 15h 44m
Length of Day
14h 37m
Full, 100% of the Moon is Illuminated
Aug 1
Full
Aug 1
Full
Aug 9
Last Quarter
Aug 17
New
Aug 24
First Quarter

Hourly Weather History & Observations

Time (CDT) Temp. Heat Index Dew Point Humidity Pressure Visibility Wind Dir Wind Speed Gust Speed Precip Events Conditions
12:13 AM 68.0 °F - 64.4 °F 88% 29.96 in 10.0 mi South 3.5 mph - N/A   Clear
12:34 AM 66.2 °F - 62.6 °F 88% 29.96 in 10.0 mi Calm Calm - N/A   Clear
12:54 AM 66.2 °F - 62.6 °F 88% 29.96 in 10.0 mi Calm Calm - N/A   Clear
1:13 AM 64.4 °F - 62.6 °F 94% 29.96 in 10.0 mi South 3.5 mph - N/A   Clear
1:34 AM 64.4 °F - 62.6 °F 94% 29.96 in 10.0 mi Calm Calm - N/A   Clear
1:54 AM 64.4 °F - 62.6 °F 94% 29.96 in 10.0 mi Calm Calm - N/A   Clear
2:13 AM 62.6 °F - 62.6 °F 100% 29.96 in 10.0 mi Calm Calm - N/A   Clear
2:34 AM 62.6 °F - 62.6 °F 100% 29.95 in 10.0 mi Calm Calm - N/A   Clear
3:14 AM 62.6 °F - 60.8 °F 94% 29.94 in 10.0 mi Calm Calm - N/A   Clear
3:33 AM 62.6 °F - 60.8 °F 94% 29.94 in 10.0 mi Calm Calm - N/A   Clear
3:53 AM 62.6 °F - 60.8 °F 94% 29.94 in 10.0 mi Calm Calm - N/A   Clear
4:14 AM 62.6 °F - 60.8 °F 94% 29.94 in 10.0 mi Calm Calm - N/A   Clear
4:33 AM 60.8 °F - 59.0 °F 94% 29.93 in 10.0 mi ESE 3.5 mph - N/A   Clear
4:53 AM 60.8 °F - 59.0 °F 94% 29.93 in 10.0 mi Calm Calm - N/A   Clear
5:14 AM 60.8 °F - 60.8 °F 100% 29.93 in 7.0 mi Calm Calm - N/A   Clear
5:33 AM 60.8 °F - 60.8 °F 100% 29.93 in 10.0 mi Calm Calm - N/A   Clear
5:53 AM 60.8 °F - 59.0 °F 94% 29.94 in 7.0 mi Calm Calm - N/A   Clear
6:14 AM 60.8 °F - 59.0 °F 94% 29.93 in 5.0 mi Calm Calm - N/A   Clear
6:33 AM 60.8 °F - 60.8 °F 100% 29.93 in 5.0 mi Calm Calm - N/A   Clear
6:53 AM 62.6 °F - 60.8 °F 94% 29.92 in 5.0 mi South 3.5 mph - N/A   Clear
7:14 AM 64.4 °F - 62.6 °F 94% 29.92 in 7.0 mi South 3.5 mph - N/A   Clear
7:33 AM 66.2 °F - 62.6 °F 88% 29.91 in 7.0 mi SSE 6.9 mph - N/A   Clear
8:14 AM 69.8 °F - 62.6 °F 78% 29.91 in 10.0 mi South 5.8 mph - N/A   Clear
8:34 AM 71.6 °F - 64.4 °F 78% 29.90 in 10.0 mi South 8.1 mph - N/A   Clear
9:14 AM 73.4 °F - 64.4 °F 73% 29.90 in 10.0 mi South 8.1 mph - N/A   Clear
9:33 AM 75.2 °F - 66.2 °F 73% 29.90 in 10.0 mi SSW 6.9 mph - N/A   Clear
9:54 AM 75.2 °F - 66.2 °F 73% 29.89 in 10.0 mi South 8.1 mph - N/A   Clear
10:13 AM 77.0 °F - 66.2 °F 69% 29.88 in 10.0 mi South 11.5 mph - N/A   Clear
10:34 AM 78.8 °F - 68.0 °F 69% 29.89 in 10.0 mi South 9.2 mph - N/A   Clear
11:13 AM 80.6 °F 83.2 °F 68.0 °F 65% 29.90 in 10.0 mi WSW 9.2 mph - N/A   Clear
11:33 AM 80.6 °F 82.7 °F 66.2 °F 61% 29.91 in 10.0 mi WSW 8.1 mph - N/A   Clear
11:54 AM 80.6 °F 83.2 °F 68.0 °F 65% 29.90 in 10.0 mi SSW 5.8 mph - N/A   Clear
12:13 PM 80.6 °F 83.2 °F 68.0 °F 65% 29.87 in 10.0 mi SSW 8.1 mph 16.1 mph N/A   Clear
12:33 PM 80.6 °F 83.9 °F 69.8 °F 70% 29.88 in 10.0 mi WSW 3.5 mph - N/A   Clear
12:54 PM 82.4 °F 86.3 °F 69.8 °F 66% 29.86 in 10.0 mi SSW 8.1 mph - N/A   Clear
1:13 PM 84.2 °F 88.4 °F 69.8 °F 62% 29.85 in 10.0 mi SSW 8.1 mph 16.1 mph N/A   Clear
1:34 PM 84.2 °F 88.4 °F 69.8 °F 62% 29.85 in 10.0 mi SW 9.2 mph - N/A   Clear
1:54 PM 86.0 °F 90.4 °F 69.8 °F 58% 29.86 in 10.0 mi WSW 11.5 mph 18.4 mph N/A   Clear
2:13 PM 87.8 °F 93.8 °F 71.6 °F 58% 29.84 in 10.0 mi SW 8.1 mph 18.4 mph N/A   Clear
2:34 PM 84.2 °F 88.4 °F 69.8 °F 62% 29.84 in 10.0 mi SW 9.2 mph 17.3 mph N/A   Clear
2:54 PM 87.8 °F 93.8 °F 71.6 °F 58% 29.84 in 10.0 mi SSW 9.2 mph - N/A   Clear
3:13 PM 87.8 °F 93.8 °F 71.6 °F 58% 29.83 in 10.0 mi SW 6.9 mph - N/A   Clear
3:34 PM 86.0 °F 91.8 °F 71.6 °F 62% 29.83 in 10.0 mi SW 4.6 mph - N/A   Clear
3:54 PM 87.8 °F 93.8 °F 71.6 °F 58% 29.83 in 10.0 mi SW 4.6 mph - N/A   Clear
4:13 PM 89.6 °F 96.2 °F 71.6 °F 55% 29.82 in 10.0 mi WSW 8.1 mph - N/A   Clear
4:34 PM 89.6 °F 96.2 °F 71.6 °F 55% 29.82 in 10.0 mi WSW 8.1 mph - N/A   Clear
5:13 PM 89.6 °F 98.2 °F 73.4 °F 59% 29.81 in 7.0 mi SSW 4.6 mph - N/A   Clear
5:34 PM 89.6 °F 98.2 °F 73.4 °F 59% 29.80 in 10.0 mi WSW 3.5 mph - N/A   Clear
5:54 PM 89.6 °F 98.2 °F 73.4 °F 59% 29.79 in 10.0 mi SW 4.6 mph - N/A   Clear
6:13 PM 89.6 °F 99.8 °F 75.2 °F 62% 29.79 in 10.0 mi WSW 5.8 mph - N/A   Clear
6:34 PM 86.0 °F 93.4 °F 73.4 °F 66% 29.80 in 10.0 mi West 5.8 mph - N/A   Clear
6:54 PM 84.2 °F 90.9 °F 73.4 °F 70% 29.80 in 10.0 mi West 4.6 mph - N/A   Clear
7:13 PM 84.2 °F 90.9 °F 73.4 °F 70% 29.81 in 10.0 mi West 5.8 mph - N/A   Clear
7:34 PM 84.2 °F 89.6 °F 71.6 °F 66% 29.81 in 10.0 mi West 5.8 mph - N/A   Clear
7:54 PM 82.4 °F 87.2 °F 71.6 °F 70% 29.82 in 10.0 mi West 5.8 mph - N/A   Clear
8:13 PM 82.4 °F 88.2 °F 73.4 °F 74% 29.83 in 10.0 mi West 5.8 mph - N/A   Clear
8:34 PM 80.6 °F 85.4 °F 73.4 °F 79% 29.82 in 10.0 mi West 4.6 mph - N/A Thunderstorm Scattered Clouds
8:54 PM 80.6 °F 85.4 °F 73.4 °F 79% 29.83 in 10.0 mi WNW 5.8 mph - N/A Thunderstorm Scattered Clouds
9:33 PM 73.4 °F - 69.8 °F 88% 29.88 in 10.0 mi WSW 9.2 mph 18.4 mph 0.01 in Rain , Thunderstorm Thunderstorms and Rain
9:53 PM 71.6 °F - 66.2 °F 83% 29.89 in 10.0 mi SW 5.8 mph - 0.03 in Rain , Thunderstorm Thunderstorms and Rain
10:13 PM 69.8 °F - 66.2 °F 88% 29.88 in 10.0 mi WNW 5.8 mph - N/A Rain , Thunderstorm Light Thunderstorms and Rain
10:34 PM 69.8 °F - 66.2 °F 88% 29.86 in 10.0 mi Calm Calm - N/A   Clear
10:53 PM 69.8 °F - 66.2 °F 88% 29.85 in 10.0 mi Calm Calm - N/A   Clear
11:34 PM 69.8 °F - 62.6 °F 78% 29.84 in 10.0 mi West 6.9 mph - N/A   Clear